Weather History for Nassau, Bahamas

Change the Weather History Date:

Tuesday, August 20, 2013

  Actual Average Record
Temperature  
Mean Temperature 82 °F -  
Max Temperature 88 °F 88 °F 98 °F (2010)
Min Temperature 77 °F 74 °F 75 °F (1996)
Cooling Degree Days 18    
Growing Degree Days 32 (Base 50)    
Moisture  
Dew Point 76 °F    
Average Humidity 79    
Maximum Humidity 89    
Minimum Humidity 67    
Precipitation  
Precipitation 0.35 in 0.24 in - ()
Sea Level Pressure  
Sea Level Pressure 30.02 in    
Wind  
Wind Speed 5 mph ()    
Max Wind Speed 14 mph    
Max Gust Speed -    
Visibility 6.6 miles    
Events Rain , Thunderstorm    
Averages and records for this station are not official NWS values.
T = Trace of Precipitation, MM = Missing Value Source: Averaged Metar Reports

Daily Weather History Graph

Daily Weather History Graph

Search for Another Location

Airport:

Trip Planner

Search our weather history database for the weather conditions in past years. The results will help you decide how hot, cold, wet, or windy it might be!

Date:

Astronomy

Aug. 20, 2013 Rise Set
Actual Time 6:46 AM EDT 7:39 PM EDT
Civil Twilight 6:22 AM EDT 8:03 PM EDT
Nautical Twilight 5:54 AM EDT 8:31 PM EDT
Astronomical Twilight 5:25 AM EDT 8:59 PM EDT
Moon 7:16 PM EDT (8/20) 6:10 AM EDT (8/20)
Length of Visible Light 13h 41m
Length of Day
12h 53m
Full, 100% of the Moon is Illuminated
Aug 20
Full
Aug 20
Full
Aug 28
Last Quarter
Sep 5
New
Sep 12
First Quarter

Hourly Weather History & Observations

Time (EDT) Temp. Heat Index Dew Point Humidity Pressure Visibility Wind Dir Wind Speed Gust Speed Precip Events Conditions
12:00 AM - - - N/A% 30.03 in 6.2 mi ESE 3.5 mph - N/A   Scattered Clouds
1:00 AM 82.4 °F 89.5 °F 75.2 °F 79% 30.03 in 6.2 mi East 3.5 mph - N/A   Scattered Clouds
2:00 AM 82 °F - 76 °F 78% 30.01 in 9 mi East 3.5 mph - -   Partly Cloudy
2:00 AM 82.4 °F 90.9 °F 77.0 °F 84% 30.01 in 6.2 mi East 3.5 mph - N/A   Scattered Clouds
3:00 AM 80.6 °F 85.4 °F 73.4 °F 79% 30.00 in 6.2 mi Variable 2.3 mph - N/A   Scattered Clouds
4:00 AM 80.6 °F 86.2 °F 75.2 °F 84% 29.99 in 6.2 mi Variable 2.3 mph - N/A   Scattered Clouds
5:00 AM 81 °F - 75 °F 78% 29.99 in 9 mi East 3.5 mph - -   Scattered Clouds
5:00 AM 80.6 °F 86.2 °F 75.2 °F 84% - 6.2 mi East 3.5 mph - N/A   Partly Cloudy
6:00 AM 80.6 °F 85.4 °F 73.4 °F 79% 30.00 in 6.2 mi East 3.5 mph - N/A   Partly Cloudy
7:00 AM 80.6 °F 85.4 °F 73.4 °F 79% 30.01 in 6.2 mi East 3.5 mph - N/A   Scattered Clouds
8:00 AM 81 °F - 76 °F 80% 30.02 in 9 mi East 4.6 mph - -   Scattered Clouds
8:00 AM 80.6 °F 86.2 °F 75.2 °F 84% 30.02 in 6.2 mi East 4.6 mph - N/A   Mostly Cloudy
9:00 AM 80.6 °F 85.4 °F 73.4 °F 79% 30.03 in 6.2 mi East 6.9 mph - N/A Rain Light Rain Showers
10:00 AM 84.2 °F 92.3 °F 75.2 °F 74% 30.04 in 6.2 mi East 8.1 mph - N/A   Mostly Cloudy
11:00 AM 84 °F - 76 °F 71% 30.06 in 4 mi East 13.8 mph - - Rain Heavy Rain Showers
11:00 AM 84.2 °F 94.1 °F 77.0 °F 79% 30.06 in 3.7 mi East 13.8 mph - N/A Rain Rain Showers
11:16 AM 77.0 °F - 73.4 °F 89% 30.06 in 6.2 mi Variable 2.3 mph - N/A   Mostly Cloudy
12:00 PM 84.2 °F 92.3 °F 75.2 °F 74% 30.05 in 6.2 mi ESE 6.9 mph - N/A   Mostly Cloudy
1:00 PM 86.0 °F 95.1 °F 75.2 °F 70% 30.03 in 6.2 mi ENE 9.2 mph - N/A   Scattered Clouds
2:00 PM 86 °F - 78 °F 73% 30.01 in 9 mi ENE 11.5 mph - -   Partly Cloudy
2:00 PM 86.0 °F 99.3 °F 78.8 °F 79% 30.01 in 6.2 mi ENE 11.5 mph - N/A   Mostly Cloudy
3:00 PM 86.0 °F 96.9 °F 77.0 °F 74% 30.02 in 6.2 mi ENE 9.2 mph - N/A   Mostly Cloudy
4:00 PM 86.0 °F 96.9 °F 77.0 °F 74% 30.01 in 6.2 mi NE 10.4 mph - N/A   Mostly Cloudy
5:00 PM 88 °F - 78 °F 67% 30.00 in 9 mi ENE 11.5 mph - -   Partly Cloudy
5:00 PM 87.8 °F 102.5 °F 78.8 °F 75% 30.00 in 6.2 mi ENE 11.5 mph - N/A   Mostly Cloudy
5:25 PM - - - N/A% - - ESE 8.1 mph - N/A   Unknown
6:00 PM 82.4 °F 90.9 °F 77.0 °F 84% 29.99 in 6.2 mi East 4.6 mph - N/A   Mostly Cloudy
7:12 PM 82.4 °F 90.9 °F 77.0 °F 84% 30.00 in 6.2 mi ENE 3.5 mph - N/A Rain , Thunderstorm Light Thunderstorms and Rain
8:00 PM 80 °F - 77 °F 89% 30.01 in 9 mi East 4.6 mph - - Thunderstorm Light Thunderstorm
8:00 PM 80.6 °F 87.1 °F 77.0 °F 89% 30.01 in 6.2 mi East 4.6 mph - N/A   Mostly Cloudy
10:00 PM 82.4 °F 89.5 °F 75.2 °F 79% 30.04 in 6.2 mi East 5.8 mph - N/A   Mostly Cloudy
11:00 PM 80.6 °F 87.1 °F 77.0 °F 89% 30.05 in 6.2 mi East 3.5 mph - N/A   Mostly Cloudy